Simultaneous Nadir Overpasses (SNOs) Predictions

Prediction of SNOs near US between AQUA and NPP Satellite Orbit:

Table of predicted SNOs near US for the next 10.0 days since TLE Epoch: 10/26/2018
Index Date (AQUA) Time (AQUA) AQUA Lat,Lon Date (NPP) Time (NPP) NPP Lat,Lon Distance(km) Time Diff (sec)
1 10/29/2018 06:30:21 46.43, -65.04 10/29/2018 06:30:52 46.85, -67.02 158.71 31
2 10/29/2018 08:08:15 49.93, -88.37 10/29/2018 08:11:20 50.41, -90.87 186.65 185
3 10/29/2018 09:47:08 49.93,-113.08 10/29/2018 09:52:47 50.58,-116.17 231.06 339
4 10/31/2018 19:06:23 49.95, -92.55 10/31/2018 19:01:35 49.61, -94.39 137.26 288
5 10/31/2018 20:45:16 49.95,-117.27 10/31/2018 20:43:03 49.51,-119.71 182.59 133
6 11/03/2018 08:35:04 20.05,-101.89 11/03/2018 08:26:44 18.65,-102.41 164.75 500
7 11/03/2018 10:11:50 27.70,-124.77 11/03/2018 10:05:37 27.84,-125.46 70.41 373




NCC Satellite Simultaneous Nadir Overpasses (SNOs) Prediction Service
